Location: ??????
(56.0120°N, 39.1740°E)
Time: 15:41:57
(UTC+00:00)

Cosmos 2285 Rocket - Pass Details

Date: 14 April 2026
Orbit: 971 x 997 km, 74.0° (Epoch: 17 May)

Event Time Altitude Azimuth Distance (km) Brightness Sun altitude
Exits shadow 20:10:28 30° 210° (SSW) 1,685 4.9 -22.6°
Maximum altitude 20:13:51 87° 296° (WNW) 993 4.0 -22.8°
Drops below altitude 10° 20:20:14 10° 28° (NNE) 2,740 6.9 -23.0°
Sets 20:22:46 0° 29° (NNE) 3,688 7.7 -23.1°
